TimeCST,TemperatureF,Dew PointF,Humidity,Sea Level PressureIn,VisibilityMPH,Wind Direction,Wind SpeedMPH,Gust SpeedMPH,PrecipitationIn,Events,Conditions,WindDirDegrees,DateUTC
12:35 AM,33.8,30.2,87,29.68,10.0,WSW,3.5,-,N/A,,Clear,240,2012-01-11 06:35:00
12:55 AM,32.0,28.4,87,29.68,10.0,SW,4.6,-,N/A,,Clear,230,2012-01-11 06:55:00
1:15 AM,33.8,30.2,87,29.67,10.0,WSW,3.5,-,N/A,,Clear,240,2012-01-11 07:15:00
1:35 AM,33.8,28.4,81,29.68,10.0,WSW,5.8,-,N/A,,Clear,240,2012-01-11 07:35:00
1:55 AM,33.8,28.4,81,29.68,10.0,WSW,5.8,-,N/A,,Clear,240,2012-01-11 07:55:00
2:15 AM,33.8,30.2,87,29.68,10.0,Calm,Calm,-,N/A,,Clear,0,2012-01-11 08:15:00
2:35 AM,33.8,28.4,81,29.68,10.0,WSW,3.5,-,N/A,,Clear,240,2012-01-11 08:35:00
2:55 AM,33.8,28.4,81,29.67,10.0,Calm,Calm,-,N/A,,Clear,0,2012-01-11 08:55:00
3:15 AM,32.0,28.4,87,29.67,10.0,SW,3.5,-,N/A,,Clear,230,2012-01-11 09:15:00
3:55 AM,28.4,28.4,100,29.66,4.0,Calm,Calm,-,N/A,,Clear,0,2012-01-11 09:55:00
4:15 AM,28.4,28.4,100,29.66,4.0,SW,4.6,-,N/A,,Clear,230,2012-01-11 10:15:00
4:35 AM,28.4,28.4,100,29.66,5.0,Calm,Calm,-,N/A,,Clear,0,2012-01-11 10:35:00
4:55 AM,28.4,24.8,86,29.66,3.0,Calm,Calm,-,N/A,,Clear,0,2012-01-11 10:55:00
5:15 AM,26.6,24.8,93,29.65,2.5,Calm,Calm,-,N/A,,Clear,0,2012-01-11 11:15:00
5:35 AM,26.6,26.6,100,29.65,0.5,Calm,Calm,-,N/A,,Unknown,0,2012-01-11 11:35:00
5:55 AM,28.4,28.4,100,29.65,5.0,Calm,Calm,-,N/A,,Clear,0,2012-01-11 11:55:00
6:15 AM,26.6,26.6,100,29.64,3.0,Calm,Calm,-,N/A,,Clear,0,2012-01-11 12:15:00
6:35 AM,28.4,24.8,86,29.63,7.0,SW,3.5,-,N/A,,Clear,220,2012-01-11 12:35:00
6:55 AM,28.4,28.4,100,29.63,7.0,SSW,4.6,-,N/A,,Clear,200,2012-01-11 12:55:00
7:15 AM,30.2,26.6,86,29.62,5.0,SW,3.5,-,N/A,,Clear,230,2012-01-11 13:15:00
8:35 AM,33.8,30.2,87,29.64,7.0,West,3.5,-,N/A,,Clear,270,2012-01-11 14:35:00
8:55 AM,33.8,30.2,87,29.63,8.0,WNW,3.5,-,N/A,,Clear,290,2012-01-11 14:55:00
9:15 AM,35.6,30.2,81,29.63,8.0,WSW,3.5,-,N/A,,Clear,250,2012-01-11 15:15:00
9:35 AM,37.4,28.4,70,29.62,9.0,SSW,5.8,-,N/A,,Clear,200,2012-01-11 15:35:00
9:55 AM,37.4,30.2,75,29.61,9.0,South,3.5,-,N/A,,Clear,190,2012-01-11 15:55:00
10:15 AM,39.2,28.4,65,29.61,10.0,South,6.9,-,N/A,,Clear,180,2012-01-11 16:15:00
10:35 AM,39.2,30.2,70,29.61,10.0,Calm,Calm,-,N/A,,Clear,0,2012-01-11 16:35:00
10:55 AM,41.0,30.2,65,29.61,10.0,NNW,3.5,-,N/A,,Clear,330,2012-01-11 16:55:00
11:15 AM,41.0,30.2,65,29.59,9.0,Calm,Calm,-,N/A,,Clear,0,2012-01-11 17:15:00
11:35 AM,42.8,30.2,61,29.59,9.0,NNE,5.8,-,N/A,,Clear,30,2012-01-11 17:35:00
11:55 AM,42.8,30.2,61,29.57,10.0,NE,3.5,-,N/A,,Clear,40,2012-01-11 17:55:00
12:35 PM,44.6,30.2,57,29.57,10.0,East,3.5,-,N/A,,Clear,100,2012-01-11 18:35:00
12:55 PM,42.8,30.2,61,29.57,9.0,ESE,5.8,-,N/A,,Clear,120,2012-01-11 18:55:00
1:15 PM,42.8,30.2,61,29.56,9.0,East,5.8,-,N/A,,Clear,100,2012-01-11 19:15:00
1:35 PM,42.8,30.2,61,29.56,8.0,East,4.6,-,N/A,,Clear,90,2012-01-11 19:35:00
1:55 PM,42.8,28.4,57,29.56,9.0,East,5.8,-,N/A,,Clear,80,2012-01-11 19:55:00
2:15 PM,42.8,28.4,57,29.56,10.0,East,3.5,-,N/A,,Clear,100,2012-01-11 20:15:00
2:35 PM,42.8,28.4,57,29.56,9.0,Calm,Calm,-,N/A,,Clear,0,2012-01-11 20:35:00
2:55 PM,42.8,28.4,57,29.55,10.0,NE,4.6,-,N/A,,Clear,50,2012-01-11 20:55:00
4:15 PM,35.6,30.2,81,29.55,6.0,ESE,4.6,-,N/A,,Clear,120,2012-01-11 22:15:00
4:55 PM,35.6,30.2,81,29.56,7.0,Calm,Calm,-,N/A,,Clear,0,2012-01-11 22:55:00
5:15 PM,33.8,28.4,81,29.56,8.0,NE,4.6,-,N/A,,Clear,50,2012-01-11 23:15:00
5:35 PM,33.8,28.4,81,29.56,8.0,NE,3.5,-,N/A,,Clear,40,2012-01-11 23:35:00
6:15 PM,33.8,28.4,81,29.55,9.0,Calm,Calm,-,N/A,,Clear,0,2012-01-12 00:15:00
6:35 PM,33.8,28.4,81,29.55,8.0,Calm,Calm,-,N/A,,Clear,0,2012-01-12 00:35:00
7:15 PM,32.0,26.6,80,29.56,7.0,North,4.6,-,N/A,,Clear,10,2012-01-12 01:15:00
8:15 PM,33.8,28.4,81,29.55,9.0,North,6.9,-,N/A,,Clear,350,2012-01-12 02:15:00
8:35 PM,33.8,28.4,81,29.55,9.0,North,6.9,-,N/A,,Clear,360,2012-01-12 02:35:00
9:15 PM,33.8,28.4,81,29.55,8.0,North,6.9,-,N/A,,Clear,350,2012-01-12 03:15:00
9:35 PM,33.8,28.4,81,29.55,8.0,North,8.1,-,N/A,,Clear,360,2012-01-12 03:35:00
9:55 PM,33.8,28.4,81,29.56,8.0,North,8.1,-,N/A,,Clear,10,2012-01-12 03:55:00
10:15 PM,33.8,28.4,81,29.57,7.0,North,4.6,-,N/A,,Partly Cloudy,360,2012-01-12 04:15:00
10:35 PM,33.8,30.2,87,29.57,8.0,NNE,4.6,-,N/A,,Mostly Cloudy,30,2012-01-12 04:35:00
10:55 PM,33.8,30.2,87,29.57,7.0,North,8.1,-,N/A,,Overcast,10,2012-01-12 04:55:00
11:15 PM,33.8,30.2,87,29.56,5.0,North,9.2,-,N/A,,Overcast,360,2012-01-12 05:15:00